[[{"header":{"parameterUnit":"m.s-1","parameterCategory":1,"la1":30.2991,"la2":30.254,"lo1":-89.0895,"lo2":-89.0444,"dy":0.0017,"dx":0.0017,"nx":28,"ny":28,"refTime":"2025-12-16T03:00:00:Z","depth":0,"parameterNumber":2,"parameterNumberName":"U-component_of_WINDS"},"data":[0,0,0,0,0,0,0,0,0,0,0,0,0,0,0,0,0,0,0,0,0,0,0,0,0,0,0,0,0,0,0,0,0,0,0,0,0,0,0,0,0,0,0,0,0,0,0,0,0,0,0,0,0,0,0,0,0,0,-2.6266,-2.6268,0,-2.6446,-2.6448,-2.645,-2.644,-2.6438,-2.6435,-2.6432,-2.6617,-2.6624,-2.6631,0,0,0,0,0,0,0,0,0,0,0,0,0,-2.5915,-2.5921,-2.6266,-2.6268,-2.627,-2.6446,-2.6448,-2.645,-2.6441,-2.6437,-2.6434,-2.6431,-2.6614,-2.6623,-2.6632,0,0,0,0,0,0,0,0,0,0,0,0,0,-2.6078,-2.5923,-2.6265,-2.6286,-2.629,-2.6445,-2.6448,-2.6451,-2.6441,-2.6437,-2.6433,-2.643,-2.6612,-2.6622,-2.6633,-2.6779,0,0,-2.6667,-2.6671,0,0,0,0,0,0,0,0,-2.6069,-2.6091,-2.6281,-2.6285,-2.629,-2.6417,-2.6392,-2.6561,-2.6442,-2.6384,-2.6432,-2.6428,-2.6553,-2.6569,-2.6611,-2.6787,-2.6795,-2.6668,-2.6674,-2.6679,-2.6682,0,0,0,0,0,0,0,-2.6057,-2.6083,-2.6337,-2.6284,-2.6289,-2.6287,-2.6306,-2.6424,-2.6488,-2.6389,-2.6388,-2.641,-2.6555,-2.6601,-2.6615,-2.6798,-2.6667,-2.6677,-2.6684,-2.6688,-2.7104,-2.7108,0,0,0,0,0,0,-2.6041,-2.6074,-2.6331,-2.6342,-2.6167,-2.6297,-2.6318,-2.638,-2.6487,-2.65,-2.6413,-2.6409,-2.6584,-2.6603,-2.6622,-2.68,-2.6679,-2.6689,-2.6696,-2.7099,-2.7105,-2.711,0,0,0,0,0,0,-2.6034,-2.6064,-2.6324,-2.6208,-2.6241,-2.6307,-2.6376,-2.6385,-2.6431,-2.6505,-2.6517,-2.6448,-2.6581,-2.6606,-2.674,-2.6806,-2.6694,-2.6704,-2.7094,-2.7101,-2.7107,-2.7157,0,0,0,0,0,0,-2.6024,-2.6062,-2.6117,-2.6209,-2.6247,-2.6439,-2.6381,-2.6392,-2.645,-2.6446,-2.6541,-2.6553,-2.658,-2.6724,-2.6751,-2.6819,-2.6713,-2.7089,-2.7097,-2.7105,-2.7149,-2.7164,-2.7177,0,0,0,0,0,-2.6011,-2.6124,-2.612,-2.6151,-2.6318,-2.6443,-2.6464,-2.6494,-2.6455,-2.6512,-2.656,-2.655,-2.6795,-2.6737,-2.6768,-2.6841,-2.7085,-2.7095,-2.7105,-2.7143,-2.7161,-2.7177,0,0,0,0,0,0,-2.6038,-2.6136,-2.6133,-2.6279,-2.6353,-2.6441,-2.6513,-2.6512,-2.6597,-2.659,-2.6623,-2.6645,-2.6779,-2.6823,-2.6758,-2.6988,-2.6935,-2.6951,-2.6954,-2.6971,-2.6985,-2.6971,-2.6722,0,0,0,0,0,-2.606,-2.6153,-2.6234,-2.6355,-2.6392,-2.6447,-2.6502,-2.6518,-2.6596,-2.6627,-2.6684,-2.676,-2.6854,-2.6915,-2.7006,-2.7156,-2.7177,-2.7221,-2.7235,-2.7246,-2.726,-2.7343,-2.7364,-2.7143,-2.7143,-2.7142,0,0,-2.6108,-2.6174,-2.623,-2.6362,-2.6421,-2.6517,-2.6473,-2.6575,-2.6647,-2.6642,-2.6772,-2.6817,-2.6904,-2.7047,-2.7113,-2.7088,-2.7326,-2.7259,-2.7267,-2.7275,-2.7356,-2.7376,-2.7395,-2.7149,-2.7148,-2.7147,0,0,-2.6244,-2.6303,-2.641,-2.6471,-2.6561,-2.6596,-2.6622,-2.6711,-2.6741,-2.6872,-2.6871,-2.6957,-2.7118,-2.718,-2.7233,-2.7394,-2.7388,-2.7423,-2.7494,-2.7575,-2.7593,-2.7608,-2.7666,-2.7686,-2.7437,-2.7437,-2.7437,0,-2.6292,-2.6436,-2.6465,-2.657,-2.6628,-2.6629,-2.6738,-2.6795,-2.691,-2.6951,-2.6922,-2.7125,-2.7184,-2.7341,-2.7381,-2.7423,-2.7454,-2.7412,-2.7588,-2.7604,-2.7619,-2.7674,-2.7696,-2.744,-2.744,-2.744,-2.7439,0,-2.6491,-2.6591,-2.6667,-2.6778,-2.6845,-2.6951,-2.6997,-2.7062,-2.7073,-2.7112,-2.7246,-2.7316,-2.7422,-2.7461,-2.7472,-2.7621,-2.7602,-2.7581,-2.7528,-2.7643,-2.7696,-2.7717,-2.7446,-2.7444,-2.7443,-2.7442,0,0,-2.6646,-2.6774,-2.6801,-2.6852,-2.6953,-2.7031,-2.7138,-2.7241,-2.7296,-2.7376,-2.7466,-2.7603,-2.7584,-2.7644,-2.7663,-2.7734,-2.7858,-2.7704,-2.7706,-2.773,-2.8026,-2.8042,-2.8066,-2.7855,-2.7859,-2.7863,-2.8019,0,-2.6792,-2.6981,-2.7012,-2.7178,-2.7271,-2.7274,-2.7367,-2.7439,-2.7479,-2.7564,-2.7608,-2.7705,-2.7672,-2.7708,-2.7779,-2.7828,-2.7918,-2.7817,-2.794,-2.7944,-2.7917,-2.8093,-2.811,-2.8253,-2.804,-2.8043,-2.8046,0,-2.6987,-2.7073,-2.7248,-2.7337,-2.7377,-2.746,-2.7558,-2.7639,-2.7721,-2.7745,-2.7813,-2.7824,-2.7935,-2.7879,-2.8033,-2.7964,-2.8016,-2.8048,-2.8054,-2.8066,-2.8001,-2.8109,-2.83,-2.8321,-2.8078,-2.8076,-2.8073,0,-2.7083,-2.7242,-2.7367,-2.7411,-2.7518,-2.7576,-2.7624,-2.7702,-2.7763,-2.7848,-2.7888,-2.7986,-2.8039,-2.8115,-2.8152,-2.8107,-2.8304,-2.825,-2.8327,-2.8326,-2.8367,-2.8364,-2.8569,-2.8402,-2.8402,-2.8402,-2.8401,0,-2.7242,-2.7349,-2.7412,-2.7489,-2.761,-2.7645,-2.7763,-2.7809,-2.7879,-2.7966,-2.7975,-2.8056,-2.8101,-2.8189,-2.8219,-2.8342,-2.8366,-2.8389,-2.8395,-2.8388,-2.8385,-2.8422,-2.8412,-2.8407,-2.8406,-2.8405,-2.8404,0,-2.7368,-2.7415,-2.7552,-2.7643,-2.7668,-2.7753,-2.783,-2.7906,-2.7946,-2.8055,-2.8083,-2.8146,-2.825,-2.8295,-2.8424,-2.8444,-2.8585,-2.8585,-2.8557,-2.8559,-2.8633,-2.8626,-2.8868,-2.8902,-2.8714,-2.8715,-2.8717,0,-2.7466,-2.7549,-2.7648,-2.7707,-2.7756,-2.7851,-2.7913,-2.7951,-2.8016,-2.8117,-2.818,-2.8285,-2.837,-2.8537,-2.8594,-2.8692,-2.8694,-2.8772,-2.8709,-2.8699,-2.8695,-2.8689,-2.8698,-2.8783,-2.8785,-2.8787,-2.8788,0,-2.7635,-2.7654,-2.7743,-2.7842,-2.7916,-2.7995,-2.8072,-2.812,-2.817,-2.8242,-2.8349,-2.8416,-2.8547,-2.8651,-2.8753,-2.8802,-2.8804,-2.8808,-2.8831,-2.8823,-2.8804,-2.8815,-2.8588,-2.8802,-2.88,-2.8799,-2.8798,-2.8798,-2.775,-2.7824,-2.7906,-2.8005,-2.8068,-2.814,-2.8216,-2.8266,-2.8355,-2.8465,-2.8483,-2.8597,-2.8679,-2.8816,-2.887,-2.896,-2.894,-2.8974,-2.8982,-2.8989,-2.8994,-2.879,-2.8979,-2.8978,-2.8978,-2.8978,-2.8978,0,-2.7919,-2.7972,-2.8063,-2.8171,-2.825,-2.8246,-2.8332,-2.8397,-2.8498,-2.8574,-2.8658,-2.8782,-2.8883,-2.8949,-2.9051,-2.9111,-2.9114,-2.9137,-2.9132,-2.9143,-2.9006,-2.8975,-2.9132,-2.9132,-2.9132,-2.9132,-2.9132,-2.9132,-2.8016,-2.814,-2.817,-2.8326,-2.8379,-2.8491,-2.8541,-2.8608,-2.8669,-2.8806,-2.889,-2.8933,-2.9006,-2.9114,-2.9207,-2.9224,-2.926,-2.9284,-2.9299,-2.9169,-2.9153,-2.9138,-2.9109,-2.9292,-2.9292,-2.943,-2.9431,-2.9432]},{"header":{"parameterUnit":"m.s-1","parameterCategory":1,"la1":30.2991,"la2":30.254,"lo1":-89.0895,"lo2":-89.0444,"dy":0.0017,"dx":0.0017,"nx":28,"ny":28,"refTime":"2025-12-16T03:00:00:Z","depth":0,"parameterNumber":3,"parameterNumberName":"V-component_of_WINDS"},"data":[0,0,0,0,0,0,0,0,0,0,0,0,0,0,0,0,0,0,0,0,0,0,0,0,0,0,0,0,0,0,0,0,0,0,0,0,0,0,0,0,0,0,0,0,0,0,0,0,0,0,0,0,0,0,0,0,0,0,-1.9775,-1.9775,0,-1.9757,-1.9756,-1.9756,-1.9742,-1.9742,-1.9741,-1.9741,-1.9721,-1.972,-1.972,0,0,0,0,0,0,0,0,0,0,0,0,0,-1.9797,-1.9796,-1.9776,-1.9775,-1.9775,-1.9757,-1.9756,-1.9756,-1.9742,-1.9742,-1.9741,-1.9741,-1.9721,-1.972,-1.972,0,0,0,0,0,0,0,0,0,0,0,0,0,-1.9783,-1.9796,-1.9776,-1.9766,-1.9765,-1.9757,-1.9756,-1.9756,-1.9742,-1.9742,-1.9741,-1.9741,-1.9721,-1.972,-1.972,-1.972,0,0,-1.9718,-1.9718,0,0,0,0,0,0,0,0,-1.9784,-1.9783,-1.9767,-1.9766,-1.9765,-1.9751,-1.9756,-1.9744,-1.9742,-1.975,-1.9741,-1.9741,-1.9731,-1.973,-1.9726,-1.9719,-1.9718,-1.9718,-1.9717,-1.9717,-1.9717,0,0,0,0,0,0,0,-1.9785,-1.9783,-1.9768,-1.9767,-1.9766,-1.9761,-1.9759,-1.9754,-1.9742,-1.975,-1.9749,-1.9747,-1.973,-1.9727,-1.9726,-1.9718,-1.9718,-1.9717,-1.9717,-1.9717,-1.9707,-1.9707,0,0,0,0,0,0,-1.9788,-1.9784,-1.9769,-1.9767,-1.9774,-1.9761,-1.9759,-1.9756,-1.9742,-1.974,-1.9747,-1.9746,-1.9728,-1.9727,-1.9725,-1.9723,-1.9717,-1.9717,-1.9716,-1.9706,-1.9707,-1.9707,0,0,0,0,0,0,-1.9788,-1.9787,-1.9769,-1.9776,-1.9773,-1.9761,-1.9758,-1.9756,-1.9752,-1.974,-1.9737,-1.9746,-1.9728,-1.9726,-1.9721,-1.9722,-1.9716,-1.9716,-1.9706,-1.9706,-1.9707,-1.9719,0,0,0,0,0,0,-1.9789,-1.9787,-1.9788,-1.9776,-1.9773,-1.9766,-1.9758,-1.9755,-1.9751,-1.975,-1.9738,-1.9736,-1.9728,-1.9722,-1.972,-1.9721,-1.9715,-1.9706,-1.9706,-1.9707,-1.9718,-1.9719,-1.972,0,0,0,0,0,-1.979,-1.9792,-1.9788,-1.9786,-1.9773,-1.9766,-1.9765,-1.9755,-1.9752,-1.9752,-1.9743,-1.9736,-1.9722,-1.9721,-1.9719,-1.972,-1.9706,-1.9706,-1.9707,-1.9718,-1.9719,-1.972,0,0,0,0,0,0,-1.9805,-1.979,-1.9785,-1.9784,-1.9776,-1.9764,-1.9764,-1.9757,-1.9751,-1.975,-1.9738,-1.9735,-1.9731,-1.9725,-1.9725,-1.9718,-1.9713,-1.9713,-1.9722,-1.9723,-1.9724,-1.9726,-1.9715,0,0,0,0,0,-1.9808,-1.9804,-1.9791,-1.9791,-1.9788,-1.9776,-1.9773,-1.9766,-1.9758,-1.9755,-1.9746,-1.9737,-1.9731,-1.9727,-1.972,-1.9717,-1.9713,-1.9716,-1.9717,-1.9718,-1.9718,-1.9714,-1.9715,-1.9707,-1.9707,-1.9707,0,0,-1.9814,-1.9806,-1.9804,-1.9794,-1.9787,-1.9782,-1.9774,-1.977,-1.9766,-1.9754,-1.9748,-1.9741,-1.9731,-1.9726,-1.9724,-1.9721,-1.9719,-1.9718,-1.9719,-1.9719,-1.9714,-1.9715,-1.9715,-1.9708,-1.9708,-1.9708,0,0,-1.9823,-1.9817,-1.9815,-1.9808,-1.9798,-1.979,-1.979,-1.9778,-1.9773,-1.9767,-1.9757,-1.9752,-1.9741,-1.9734,-1.9728,-1.9732,-1.9725,-1.973,-1.9735,-1.9731,-1.9732,-1.9732,-1.9732,-1.9733,-1.973,-1.973,-1.973,0,-1.9832,-1.9825,-1.9815,-1.9811,-1.9806,-1.9795,-1.9792,-1.9786,-1.9774,-1.977,-1.9767,-1.9752,-1.9744,-1.9737,-1.9737,-1.9734,-1.9732,-1.9731,-1.9733,-1.9733,-1.9733,-1.9733,-1.9733,-1.9731,-1.973,-1.973,-1.973,0,-1.9836,-1.9831,-1.9831,-1.9819,-1.9814,-1.9811,-1.9799,-1.9795,-1.9788,-1.978,-1.9773,-1.9763,-1.9753,-1.9751,-1.9744,-1.9742,-1.974,-1.9735,-1.973,-1.9735,-1.9734,-1.9734,-1.9731,-1.9731,-1.9731,-1.9731,0,0,-1.9855,-1.9836,-1.9836,-1.983,-1.9817,-1.9813,-1.9808,-1.9798,-1.9794,-1.9786,-1.9781,-1.9771,-1.9765,-1.9759,-1.9751,-1.9748,-1.975,-1.9743,-1.9743,-1.9744,-1.9744,-1.9748,-1.9748,-1.9745,-1.9745,-1.9745,-1.9745,0,-1.9861,-1.9853,-1.9842,-1.9837,-1.9831,-1.9819,-1.9815,-1.9805,-1.9797,-1.9791,-1.9781,-1.9774,-1.9768,-1.9764,-1.976,-1.975,-1.9749,-1.975,-1.9739,-1.9738,-1.9741,-1.9748,-1.9752,-1.9753,-1.9745,-1.9745,-1.9745,0,-1.9868,-1.9859,-1.9853,-1.9839,-1.9836,-1.9832,-1.9822,-1.9816,-1.9804,-1.9798,-1.9791,-1.9782,-1.9775,-1.977,-1.9759,-1.976,-1.9754,-1.9748,-1.9748,-1.9746,-1.9742,-1.9746,-1.9753,-1.9752,-1.9744,-1.9744,-1.9744,0,-1.988,-1.9868,-1.9862,-1.9857,-1.9841,-1.9838,-1.9831,-1.9819,-1.9813,-1.9804,-1.9799,-1.9789,-1.9783,-1.9774,-1.9762,-1.9761,-1.9752,-1.9747,-1.9746,-1.9746,-1.9745,-1.9745,-1.975,-1.9742,-1.9742,-1.9742,-1.9742,0,-1.9888,-1.9884,-1.9867,-1.9864,-1.9859,-1.9846,-1.9841,-1.9833,-1.9822,-1.9816,-1.9805,-1.9799,-1.9784,-1.9775,-1.9766,-1.9757,-1.9755,-1.9749,-1.9746,-1.975,-1.975,-1.9746,-1.9745,-1.9742,-1.9742,-1.9742,-1.9742,0,-1.9902,-1.989,-1.9883,-1.9867,-1.9863,-1.986,-1.9846,-1.9842,-1.9832,-1.9824,-1.9821,-1.9806,-1.9796,-1.9783,-1.9769,-1.9762,-1.9754,-1.9751,-1.9758,-1.9756,-1.9756,-1.9756,-1.9758,-1.9757,-1.975,-1.975,-1.975,0,-1.9907,-1.9904,-1.9888,-1.9883,-1.9876,-1.9868,-1.9862,-1.9849,-1.9842,-1.9828,-1.9825,-1.9813,-1.9804,-1.9787,-1.9774,-1.9762,-1.9758,-1.976,-1.9756,-1.9759,-1.9757,-1.9757,-1.9756,-1.9761,-1.9761,-1.9761,-1.9761,0,-1.9918,-1.9912,-1.9903,-1.9892,-1.9885,-1.9876,-1.9866,-1.9862,-1.9847,-1.984,-1.9829,-1.9821,-1.9806,-1.9794,-1.9781,-1.9772,-1.9763,-1.9762,-1.9761,-1.9764,-1.9768,-1.9765,-1.976,-1.9762,-1.9762,-1.9762,-1.9762,-1.9762,-1.9927,-1.9923,-1.991,-1.9901,-1.9892,-1.9882,-1.9877,-1.9866,-1.9857,-1.9844,-1.9836,-1.9825,-1.9811,-1.9792,-1.9784,-1.9774,-1.9771,-1.977,-1.9769,-1.9769,-1.9769,-1.977,-1.9771,-1.9771,-1.9771,-1.9771,-1.9771,0,-1.9936,-1.9927,-1.9918,-1.9904,-1.9896,-1.9889,-1.9877,-1.9871,-1.9861,-1.985,-1.984,-1.9826,-1.9814,-1.98,-1.9787,-1.9782,-1.9777,-1.9779,-1.9779,-1.9776,-1.9773,-1.9775,-1.9782,-1.9782,-1.9782,-1.9782,-1.9782,-1.9782,-1.9939,-1.9932,-1.9924,-1.9911,-1.9902,-1.9891,-1.9884,-1.9875,-1.9866,-1.9851,-1.9841,-1.9832,-1.9819,-1.9804,-1.9792,-1.9788,-1.9783,-1.9786,-1.978,-1.9778,-1.9777,-1.9776,-1.9778,-1.9785,-1.9785,-1.9784,-1.9784,-1.9784]}]]